Tracking 31027 objects as of 19-Jul-2025
HD Live streaming from Space Station
objects crossing your sky now

ARIANE 44LP DEB

Track ARIANE 44LP DEB now!


NORAD ID: 27049
Int'l Code: 1989-062M
Perigee: 381.0 km
Apogee: 28,274.8 km
Inclination: 8.6 °
Period: 493.9 minutes
Semi major axis: 20698 km
RCS: 0.1884 m2 (medium)
Launch date: August 8, 1989
Source: France (FR)
Launch site: FRENCH GUIANA (FRGUI)

Note: This is SATELLITE DEBRIS
Your satellite tracking list
FENGYUN 1C DEB
Track 1 satellite(s)




NASA's NSSDC Master Catalog

Two Line Element Set (TLE):
1 27049U 89062M   25196.87944301  .00000665  00000-0  10820-2 0  9996
2 27049   8.5578 330.9842 6737970 246.9223  32.0491  2.91528866246786
Source of the keplerian elements: AFSPC